Hourly Weather Roundup
Issued by NWS Central Illinois

Home | Current Version | Previous Version | Text Only | Print | Product List | Glossary On
Versions: 1 2 3 4 5 6 7 8 9 10 11 12 13 14 15 16 17 18 19 20 21 22 23 24 25 26 27 28 29 30 31 32 33 34 35 36 37 38 39 40 41 42 43 44 45 46 47 48 49 50
000
NZUS43 KILX 241410
HWRILX

AREA WEATHER ROUNDUP
NATIONAL WEATHER SERVICE, LINCOLN IL
900 AM CDT FRI MAR 24 2017


CITY           SKY/WX    TMP DP  RH WIND       PRES   REMARKS
BLOOMINGTON    SUNNY     57  49  74 S20       29.98S
CHAMPAIGN      SUNNY     61  50  67 S20G25    30.03F
DECATUR        SUNNY     60  50  69 S20       30.02F
EFFINGHAM      SUNNY     61  54  77 SE9       30.11S
FLORA          SUNNY     64  56  77 S10       30.11S
GALESBURG      SUNNY     57  49  73 S12       29.91S
JACKSONVILLE   SUNNY     62  51  66 S13       29.96F
LACON          SUNNY     58  48  68 SW10      29.93S
LAWRENCEVILLE  SUNNY     61  53  75 S17       30.15R
LITCHFIELD     SUNNY     61  53  77 S15       30.02F
$$


CITY           SKY/WX    TMP DP  RH WIND       PRES   REMARKS
LINCOLN        SUNNY     58  51  78 S13       29.98S
MACOMB         SUNNY     59  50  71 S12       29.94S
MATTOON        SUNNY     59  52  77 S14       30.07S
MT CARMEL AP   SUNNY     63  54  70 S12       30.14R
OLNEY-NOBLE AP SUNNY     61  57  88 S12       30.13R
PARIS          SUNNY     60  51  74 S16G24    30.09F
PEORIA         SUNNY     57  48  72 S14       29.95S
PONTIAC        SUNNY     60  51  71 S21       29.98S
RANTOUL        SUNNY     60  52  73 S18G24    30.02F
SPRINGFIELD    SUNNY     63  51  65 S17       29.99S
TAYLORVILLE    SUNNY     61  54  77 S16G23    30.01F
$$

...REGIONAL REPORTS...


CITY           SKY/WX    TMP DP  RH WIND       PRES   REMARKS
CHICAGO O`HARE CLOUDY    59  47  64 S17       29.91S
KANKAKEE       SUNNY     60  49  67 S21G26    29.99S
MOLINE         CLOUDY    62  47  57 S17G25    29.86S
MOUNT STERLING SUNNY     58  49  70 S10       29.93S
MOUNT VERNON   SUNNY     66  58  75 S17       30.11R
PITTSFIELD     SUNNY     63  51  66 S10       29.96S
QUINCY         SUNNY     63  50  62 S10       29.92S
ROCKFORD       CLOUDY    56  47  71 S8        29.90F
$$


CITY           SKY/WX    TMP DP  RH WIND       PRES   REMARKS
BURLINGTON     SUNNY     62  50  64 S15       29.88S
CEDAR RAPIDS   PTSUNNY   58  50  75 S17       29.81S
DES MOINES     CLOUDY    62  48  60 SW3       29.81R
KIRKSVILLE     SUNNY     68  32  26 S14       29.88S
OTTUMWA        SUNNY     63  50  62 S12       29.84R
ST LOUIS       MOSUNNY   68  52  56 S8        30.00F
$$


CITY           SKY/WX    TMP DP  RH WIND       PRES   REMARKS
TERRE HAUTE    MOSUNNY   60  50  69 S14       30.12R
EVANSVILLE     SUNNY     65  54  67 S14G23    30.16R
INDIANAPOLIS   PTSUNNY   59  49  69 S12       30.13R
LAFAYETTE      CLOUDY    60  51  72 S8        30.07S
MADISON        CLOUDY    47  41  80 SE5       29.86F
MILWAUKEE      CLOUDY    46  39  76 CALM      29.90F
$$





USA.gov is the U.S. government's official web portal to all federal, state and local government web resources and services.